contact:dominique.lefevre@mio.osupytheas.fr, maurice.libes@osupytheas.fr, didier.mallarino@osupytheas.fr
Project:EMSO http://www.emso-fr.org/EMSO-France
Depth: 2436.0 m
Title:EMSO Ligure Ouest : Data MII capteur MICROCAT
DateTime_Computer,Latitude,Longitude,Temperature,Conductivity,Pressure,DateTime_Instrument
DateTime_Computer,Latitude,Longitude,degC,S m-1,dbar,DateTime_Instrument
2023-07-24T00:00:35Z,42.805,6.029,13.3031,4.60104,2470.787,2023-7-24T02:02:52Z
2023-07-24T00:03:38Z,42.805,6.029,13.3040,4.60111,2470.777,2023-7-24T02:05:55Z
2023-07-24T00:06:41Z,42.805,6.029,13.3034,4.60099,2470.763,2023-7-24T02:08:58Z
2023-07-24T00:09:44Z,42.805,6.029,13.3035,4.60102,2470.754,2023-7-24T02:12:01Z
2023-07-24T00:12:47Z,42.805,6.029,13.3031,4.60116,2470.754,2023-7-24T02:15:04Z
2023-07-24T00:15:50Z,42.805,6.029,13.3046,4.60125,2470.74,2023-7-24T02:18:07Z
2023-07-24T00:18:53Z,42.805,6.029,13.3033,4.60103,2470.754,2023-7-24T02:21:11Z
2023-07-24T00:21:56Z,42.805,6.029,13.3035,4.60116,2470.763,2023-7-24T02:24:14Z
2023-07-24T00:24:59Z,42.805,6.029,13.3043,4.60117,2470.754,2023-7-24T02:27:17Z
2023-07-24T00:28:02Z,42.805,6.029,13.3034,4.60107,2470.74,2023-7-24T02:30:20Z
2023-07-24T00:31:06Z,42.805,6.029,13.3039,4.60106,2470.763,2023-7-24T02:33:23Z
2023-07-24T00:34:09Z,42.805,6.029,13.3036,4.60107,2470.717,2023-7-24T02:36:26Z
2023-07-24T00:37:12Z,42.805,6.029,13.3036,4.60108,2470.74,2023-7-24T02:39:29Z
2023-07-24T00:40:15Z,42.805,6.029,13.3033,4.60101,2470.763,2023-7-24T02:42:32Z
2023-07-24T00:43:18Z,42.805,6.029,13.3031,4.60104,2470.754,2023-7-24T02:45:35Z
2023-07-24T00:46:21Z,42.805,6.029,13.3041,4.60107,2470.754,2023-7-24T02:48:38Z
2023-07-24T00:49:24Z,42.805,6.029,13.3032,4.60107,2470.717,2023-7-24T02:51:41Z
2023-07-24T00:52:27Z,42.805,6.029,13.3034,4.60109,2470.754,2023-7-24T02:54:45Z
2023-07-24T00:55:30Z,42.805,6.029,13.3032,4.60112,2470.74,2023-7-24T02:57:48Z
2023-07-24T00:58:33Z,42.805,6.029,13.3039,4.60104,2470.74,2023-7-24T03:00:51Z
2023-07-24T01:01:36Z,42.805,6.029,13.3034,4.60110,2470.717,2023-7-24T03:03:54Z
2023-07-24T01:04:39Z,42.805,6.029,13.3042,4.60103,2470.73,2023-7-24T03:06:57Z
2023-07-24T01:07:43Z,42.805,6.029,13.3034,4.60113,2470.717,2023-7-24T03:10:00Z
2023-07-24T01:10:46Z,42.805,6.029,13.3034,4.60110,2470.717,2023-7-24T03:13:03Z
2023-07-24T01:13:49Z,42.805,6.029,13.3041,4.60111,2470.717,2023-7-24T03:16:06Z
2023-07-24T01:16:52Z,42.805,6.029,13.3029,4.60103,2470.73,2023-7-24T03:19:09Z
2023-07-24T01:19:55Z,42.805,6.029,13.3034,4.60110,2470.693,2023-7-24T03:22:12Z
2023-07-24T01:22:58Z,42.805,6.029,13.3039,4.60109,2470.684,2023-7-24T03:25:15Z
2023-07-24T01:26:01Z,42.805,6.029,13.3033,4.60105,2470.693,2023-7-24T03:28:18Z
2023-07-24T01:29:04Z,42.805,6.029,13.3037,4.60119,2470.67,2023-7-24T03:31:22Z
2023-07-24T01:32:07Z,42.805,6.029,13.3034,4.60114,2470.717,2023-7-24T03:34:25Z
2023-07-24T01:35:10Z,42.805,6.029,13.3048,4.60122,2470.717,2023-7-24T03:37:28Z
2023-07-24T01:38:13Z,42.805,6.029,13.3037,4.60141,2470.707,2023-7-24T03:40:31Z
2023-07-24T01:41:16Z,42.805,6.029,13.3043,4.60126,2470.693,2023-7-24T03:43:34Z
2023-07-24T01:44:20Z,42.805,6.029,13.3037,4.60108,2470.693,2023-7-24T03:46:37Z
2023-07-24T01:47:23Z,42.805,6.029,13.3034,4.60127,2470.693,2023-7-24T03:49:40Z
2023-07-24T01:50:26Z,42.805,6.029,13.3041,4.60122,2470.707,2023-7-24T03:52:43Z
2023-07-24T01:53:29Z,42.805,6.029,13.3036,4.60110,2470.717,2023-7-24T03:55:46Z
2023-07-24T01:56:32Z,42.805,6.029,13.3029,4.60103,2470.684,2023-7-24T03:58:49Z
2023-07-24T01:59:35Z,42.805,6.029,13.3039,4.60113,2470.707,2023-7-24T04:01:52Z
2023-07-24T02:02:38Z,42.805,6.029,13.3033,4.60117,2470.684,2023-7-24T04:04:55Z
2023-07-24T02:05:41Z,42.805,6.029,13.3032,4.60102,2470.693,2023-7-24T04:07:59Z
2023-07-24T02:08:44Z,42.805,6.029,13.3029,4.60103,2470.707,2023-7-24T04:11:02Z
2023-07-24T02:11:47Z,42.805,6.029,13.3028,4.60098,2470.693,2023-7-24T04:14:05Z
2023-07-24T02:14:50Z,42.805,6.029,13.3035,4.60106,2470.73,2023-7-24T04:17:08Z
2023-07-24T02:17:53Z,42.805,6.029,13.3035,4.60107,2470.67,2023-7-24T04:20:11Z
2023-07-24T02:20:56Z,42.805,6.029,13.3034,4.60119,2470.693,2023-7-24T04:23:14Z
2023-07-24T02:24:00Z,42.805,6.029,13.3027,4.60104,2470.684,2023-7-24T04:26:17Z
2023-07-24T02:27:03Z,42.805,6.029,13.3036,4.60120,2470.684,2023-7-24T04:29:20Z
2023-07-24T02:30:06Z,42.805,6.029,13.3034,4.60113,2470.707,2023-7-24T04:32:23Z
2023-07-24T02:33:09Z,42.805,6.029,13.3039,4.60127,2470.693,2023-7-24T04:35:26Z
2023-07-24T02:36:12Z,42.805,6.029,13.3036,4.60112,2470.684,2023-7-24T04:38:29Z
2023-07-24T02:39:15Z,42.805,6.029,13.3041,4.60137,2470.67,2023-7-24T04:41:32Z
2023-07-24T02:42:18Z,42.805,6.029,13.3031,4.60122,2470.67,2023-7-24T04:44:36Z
2023-07-24T02:45:21Z,42.805,6.029,13.3039,4.60110,2470.684,2023-7-24T04:47:39Z
2023-07-24T02:48:24Z,42.805,6.029,13.3029,4.60119,2470.707,2023-7-24T04:50:42Z
2023-07-24T02:51:27Z,42.805,6.029,13.3048,4.60134,2470.661,2023-7-24T04:53:45Z
2023-07-24T02:54:30Z,42.805,6.029,13.3036,4.60135,2470.67,2023-7-24T04:56:48Z
2023-07-24T02:57:34Z,42.805,6.029,13.3040,4.60110,2470.684,2023-7-24T04:59:51Z
2023-07-24T03:00:37Z,42.805,6.029,13.3031,4.60107,2470.67,2023-7-24T05:02:54Z
2023-07-24T03:03:40Z,42.805,6.029,13.3036,4.60105,2470.661,2023-7-24T05:05:57Z
2023-07-24T03:06:43Z,42.805,6.029,13.3032,4.60104,2470.67,2023-7-24T05:09:00Z
2023-07-24T03:09:46Z,42.805,6.029,13.3034,4.60112,2470.661,2023-7-24T05:12:03Z
2023-07-24T03:12:49Z,42.805,6.029,13.3035,4.60109,2470.684,2023-7-24T05:15:06Z
2023-07-24T03:15:52Z,42.805,6.029,13.3034,4.60107,2470.67,2023-7-24T05:18:09Z
2023-07-24T03:18:55Z,42.805,6.029,13.3031,4.60115,2470.67,2023-7-24T05:21:12Z
2023-07-24T03:21:58Z,42.805,6.029,13.3034,4.60102,2470.684,2023-7-24T05:24:16Z
2023-07-24T03:25:01Z,42.805,6.029,13.3033,4.60105,2470.646,2023-7-24T05:27:19Z
2023-07-24T03:28:04Z,42.805,6.029,13.3036,4.60108,2470.624,2023-7-24T05:30:22Z
2023-07-24T03:31:07Z,42.805,6.029,13.3037,4.60111,2470.707,2023-7-24T05:33:25Z
2023-07-24T03:34:11Z,42.805,6.029,13.3041,4.60120,2470.637,2023-7-24T05:36:28Z
2023-07-24T03:37:14Z,42.805,6.029,13.3031,4.60108,2470.684,2023-7-24T05:39:31Z
2023-07-24T03:40:17Z,42.805,6.029,13.3033,4.60099,2470.646,2023-7-24T05:42:34Z
2023-07-24T03:43:20Z,42.805,6.029,13.3030,4.60098,2470.661,2023-7-24T05:45:37Z
2023-07-24T03:46:23Z,42.805,6.029,13.3035,4.60112,2470.646,2023-7-24T05:48:40Z
2023-07-24T03:49:26Z,42.805,6.029,13.3032,4.60101,2470.684,2023-7-24T05:51:43Z
2023-07-24T03:52:29Z,42.805,6.029,13.3032,4.60109,2470.646,2023-7-24T05:54:46Z
2023-07-24T03:55:32Z,42.805,6.029,13.3031,4.60107,2470.661,2023-7-24T05:57:50Z
2023-07-24T03:58:35Z,42.805,6.029,13.3037,4.60125,2470.661,2023-7-24T06:00:53Z
2023-07-24T04:01:38Z,42.805,6.029,13.3026,4.60107,2470.646,2023-7-24T06:03:56Z
2023-07-24T04:04:41Z,42.805,6.029,13.3039,4.60109,2470.646,2023-7-24T06:06:59Z
2023-07-24T04:07:44Z,42.805,6.029,13.3037,4.60102,2470.6,2023-7-24T06:10:02Z
2023-07-24T04:10:47Z,42.805,6.029,13.3033,4.60103,2470.624,2023-7-24T06:13:05Z
2023-07-24T04:13:51Z,42.805,6.029,13.3034,4.60104,2470.646,2023-7-24T06:16:08Z
2023-07-24T04:16:54Z,42.805,6.029,13.3037,4.60111,2470.646,2023-7-24T06:19:11Z
2023-07-24T04:19:57Z,42.805,6.029,13.3039,4.60111,2470.6,2023-7-24T06:22:14Z
2023-07-24T04:23:00Z,42.805,6.029,13.3033,4.60106,2470.624,2023-7-24T06:25:17Z
2023-07-24T04:26:03Z,42.805,6.029,13.3033,4.60115,2470.624,2023-7-24T06:28:20Z
2023-07-24T04:29:06Z,42.805,6.029,13.3040,4.60121,2470.646,2023-7-24T06:31:23Z
2023-07-24T04:32:09Z,42.805,6.029,13.3039,4.60108,2470.624,2023-7-24T06:34:26Z
2023-07-24T04:35:12Z,42.805,6.029,13.3036,4.60116,2470.637,2023-7-24T06:37:30Z
2023-07-24T04:38:15Z,42.805,6.029,13.3035,4.60125,2470.661,2023-7-24T06:40:33Z
2023-07-24T04:41:18Z,42.805,6.029,13.3034,4.60112,2470.637,2023-7-24T06:43:36Z
2023-07-24T04:44:21Z,42.805,6.029,13.3051,4.60110,2470.661,2023-7-24T06:46:39Z
2023-07-24T04:47:24Z,42.805,6.029,13.3035,4.60114,2470.614,2023-7-24T06:49:42Z
2023-07-24T04:50:28Z,42.805,6.029,13.3032,4.60112,2470.637,2023-7-24T06:52:45Z
2023-07-24T04:53:31Z,42.805,6.029,13.3037,4.60114,2470.6,2023-7-24T06:55:48Z
2023-07-24T04:56:34Z,42.805,6.029,13.3036,4.60120,2470.637,2023-7-24T06:58:51Z
2023-07-24T04:59:37Z,42.805,6.029,13.3042,4.60114,2470.624,2023-7-24T07:01:54Z
2023-07-24T05:02:40Z,42.805,6.029,13.3033,4.60121,2470.661,2023-7-24T07:04:57Z
2023-07-24T05:05:43Z,42.805,6.029,13.3035,4.60119,2470.6,2023-7-24T07:08:00Z
2023-07-24T05:08:46Z,42.805,6.029,13.3033,4.60117,2470.637,2023-7-24T07:11:04Z
2023-07-24T05:11:49Z,42.805,6.029,13.3034,4.60111,2470.577,2023-7-24T07:14:07Z
2023-07-24T05:14:52Z,42.805,6.029,13.3045,4.60145,2470.637,2023-7-24T07:17:10Z
2023-07-24T05:17:55Z,42.805,6.029,13.3042,4.60139,2470.646,2023-7-24T07:20:13Z
2023-07-24T05:20:58Z,42.805,6.029,13.3036,4.60127,2470.6,2023-7-24T07:23:16Z
2023-07-24T05:24:01Z,42.805,6.029,13.3040,4.60117,2470.637,2023-7-24T07:26:19Z
2023-07-24T05:27:05Z,42.805,6.029,13.3036,4.60120,2470.6,2023-7-24T07:29:22Z
2023-07-24T05:30:08Z,42.805,6.029,13.3039,4.60115,2470.637,2023-7-24T07:32:25Z
2023-07-24T05:33:11Z,42.805,6.029,13.3042,4.60123,2470.6,2023-7-24T07:35:28Z
2023-07-24T05:36:14Z,42.805,6.029,13.3039,4.60119,2470.624,2023-7-24T07:38:31Z
2023-07-24T05:39:17Z,42.805,6.029,13.3037,4.60135,2470.6,2023-7-24T07:41:34Z
2023-07-24T05:42:20Z,42.805,6.029,13.3039,4.60148,2470.637,2023-7-24T07:44:37Z
2023-07-24T05:45:23Z,42.805,6.029,13.3035,4.60124,2470.6,2023-7-24T07:47:41Z
2023-07-24T05:48:26Z,42.805,6.029,13.3052,4.60120,2470.614,2023-7-24T07:50:44Z
2023-07-24T05:51:29Z,42.805,6.029,13.3041,4.60125,2470.586,2023-7-24T07:53:47Z
2023-07-24T05:54:32Z,42.805,6.029,13.3037,4.60113,2470.624,2023-7-24T07:56:50Z
2023-07-24T05:57:35Z,42.805,6.029,13.3036,4.60104,2470.6,2023-7-24T07:59:53Z
2023-07-24T06:00:38Z,42.805,6.029,13.3036,4.60120,2470.624,2023-7-24T08:02:56Z
2023-07-24T06:03:42Z,42.805,6.029,13.3029,4.60120,2470.6,2023-7-24T08:05:59Z
2023-07-24T06:06:45Z,42.805,6.029,13.3037,4.60127,2470.637,2023-7-24T08:09:02Z
2023-07-24T06:09:48Z,42.805,6.029,13.3036,4.60133,2470.637,2023-7-24T08:12:05Z
2023-07-24T06:12:51Z,42.805,6.029,13.3049,4.60144,2470.624,2023-7-24T08:15:08Z
2023-07-24T06:15:54Z,42.805,6.029,13.3034,4.60128,2470.624,2023-7-24T08:18:11Z
2023-07-24T06:18:57Z,42.805,6.029,13.3041,4.60135,2470.624,2023-7-24T08:21:14Z
2023-07-24T06:22:00Z,42.805,6.029,13.3043,4.60150,2470.624,2023-7-24T08:24:17Z
2023-07-24T06:25:03Z,42.805,6.029,13.3035,4.60156,2470.614,2023-7-24T08:27:21Z
2023-07-24T06:28:06Z,42.805,6.029,13.3039,4.60131,2470.646,2023-7-24T08:30:24Z
2023-07-24T06:31:08Z,42.805,6.029,13.3031,4.60117,2470.637,2023-7-24T08:33:25Z
2023-07-24T06:34:11Z,42.805,6.029,13.3030,4.60112,2470.637,2023-7-24T08:36:28Z
2023-07-24T06:37:14Z,42.805,6.029,13.3040,4.60107,2470.637,2023-7-24T08:39:31Z
2023-07-24T06:40:17Z,42.805,6.029,13.3041,4.60135,2470.637,2023-7-24T08:42:35Z
2023-07-24T06:43:20Z,42.805,6.029,13.3043,4.60147,2470.624,2023-7-24T08:45:38Z
2023-07-24T06:46:23Z,42.805,6.029,13.3036,4.60127,2470.6,2023-7-24T08:48:41Z
2023-07-24T06:49:26Z,42.805,6.029,13.3039,4.60127,2470.591,2023-7-24T08:51:44Z
2023-07-24T06:52:29Z,42.805,6.029,13.3043,4.60130,2470.624,2023-7-24T08:54:47Z
2023-07-24T06:55:33Z,42.805,6.029,13.3031,4.60107,2470.637,2023-7-24T08:57:50Z
2023-07-24T06:58:36Z,42.805,6.029,13.3039,4.60128,2470.624,2023-7-24T09:00:53Z
2023-07-24T07:01:39Z,42.805,6.029,13.3039,4.60144,2470.624,2023-7-24T09:03:56Z
2023-07-24T07:04:42Z,42.805,6.029,13.3032,4.60115,2470.6,2023-7-24T09:06:59Z
2023-07-24T07:07:45Z,42.805,6.029,13.3037,4.60135,2470.646,2023-7-24T09:10:02Z
2023-07-24T07:10:48Z,42.805,6.029,13.3051,4.60143,2470.624,2023-7-24T09:13:05Z
2023-07-24T07:13:51Z,42.805,6.029,13.3039,4.60142,2470.661,2023-7-24T09:16:08Z
2023-07-24T07:16:54Z,42.805,6.029,13.3048,4.60136,2470.646,2023-7-24T09:19:12Z
2023-07-24T07:19:57Z,42.805,6.029,13.3043,4.60142,2470.684,2023-7-24T09:22:15Z
2023-07-24T07:23:00Z,42.805,6.029,13.3048,4.60129,2470.637,2023-7-24T09:25:18Z
2023-07-24T07:26:03Z,42.805,6.029,13.3034,4.60121,2470.637,2023-7-24T09:28:21Z
2023-07-24T07:29:06Z,42.805,6.029,13.3034,4.60112,2470.646,2023-7-24T09:31:24Z
2023-07-24T07:32:10Z,42.805,6.029,13.3036,4.60144,2470.646,2023-7-24T09:34:27Z
2023-07-24T07:35:13Z,42.805,6.029,13.3037,4.60137,2470.624,2023-7-24T09:37:30Z
2023-07-24T07:38:16Z,42.805,6.029,13.3039,4.60123,2470.624,2023-7-24T09:40:33Z
2023-07-24T07:41:19Z,42.805,6.029,13.3039,4.60122,2470.637,2023-7-24T09:43:36Z
2023-07-24T07:44:22Z,42.805,6.029,13.3038,4.60151,2470.624,2023-7-24T09:46:39Z
2023-07-24T07:47:25Z,42.805,6.029,13.3056,4.60117,2470.646,2023-7-24T09:49:42Z
2023-07-24T07:50:28Z,42.805,6.029,13.3037,4.60112,2470.624,2023-7-24T09:52:45Z
2023-07-24T07:53:31Z,42.805,6.029,13.3038,4.60167,2470.637,2023-7-24T09:55:49Z
2023-07-24T07:56:34Z,42.805,6.029,13.3036,4.60137,2470.646,2023-7-24T09:58:52Z
2023-07-24T07:59:37Z,42.805,6.029,13.3026,4.60127,2470.646,2023-7-24T10:01:55Z
2023-07-24T08:02:40Z,42.805,6.029,13.3033,4.60137,2470.684,2023-7-24T10:04:58Z
2023-07-24T08:05:43Z,42.805,6.029,13.3033,4.60142,2470.684,2023-7-24T10:08:01Z
2023-07-24T08:08:46Z,42.805,6.029,13.3055,4.60144,2470.684,2023-7-24T10:11:04Z
2023-07-24T08:11:50Z,42.805,6.029,13.3043,4.60121,2470.67,2023-7-24T10:14:07Z
2023-07-24T08:14:53Z,42.805,6.029,13.3037,4.60132,2470.684,2023-7-24T10:17:10Z
2023-07-24T08:17:56Z,42.805,6.029,13.3029,4.60110,2470.646,2023-7-24T10:20:13Z
2023-07-24T08:20:59Z,42.805,6.029,13.3031,4.60110,2470.661,2023-7-24T10:23:16Z
2023-07-24T08:24:02Z,42.805,6.029,13.3035,4.60112,2470.661,2023-7-24T10:26:19Z
2023-07-24T08:27:05Z,42.805,6.029,13.3035,4.60124,2470.661,2023-7-24T10:29:22Z
2023-07-24T08:30:11Z,42.805,6.029,13.3036,4.60127,2470.67,2023-7-24T10:32:28Z
2023-07-24T08:33:14Z,42.805,6.029,13.3038,4.60124,2470.646,2023-7-24T10:35:31Z
2023-07-24T08:36:17Z,42.805,6.029,13.3035,4.60119,2470.646,2023-7-24T10:38:34Z
2023-07-24T08:39:20Z,42.805,6.029,13.3034,4.60150,2470.67,2023-7-24T10:41:37Z
2023-07-24T08:42:23Z,42.805,6.029,13.3038,4.60144,2470.67,2023-7-24T10:44:40Z
2023-07-24T08:45:26Z,42.805,6.029,13.3037,4.60122,2470.684,2023-7-24T10:47:43Z
2023-07-24T08:48:29Z,42.805,6.029,13.3046,4.60132,2470.67,2023-7-24T10:50:46Z
2023-07-24T08:51:32Z,42.805,6.029,13.3036,4.60139,2470.693,2023-7-24T10:53:50Z
2023-07-24T08:54:35Z,42.805,6.029,13.3042,4.60121,2470.67,2023-7-24T10:56:53Z
2023-07-24T08:57:38Z,42.805,6.029,13.3043,4.60127,2470.693,2023-7-24T10:59:56Z
2023-07-24T09:00:41Z,42.805,6.029,13.3038,4.60112,2470.661,2023-7-24T11:02:59Z
2023-07-24T09:03:44Z,42.805,6.029,13.3042,4.60144,2470.707,2023-7-24T11:06:02Z
2023-07-24T09:06:48Z,42.805,6.029,13.3043,4.60135,2470.67,2023-7-24T11:09:05Z
2023-07-24T09:09:51Z,42.805,6.029,13.3043,4.60138,2470.684,2023-7-24T11:12:08Z
2023-07-24T09:12:54Z,42.805,6.029,13.3038,4.60119,2470.646,2023-7-24T11:15:11Z
2023-07-24T09:15:57Z,42.805,6.029,13.3041,4.60139,2470.661,2023-7-24T11:18:14Z
2023-07-24T09:19:00Z,42.805,6.029,13.3049,4.60165,2470.684,2023-7-24T11:21:17Z
2023-07-24T09:22:03Z,42.805,6.029,13.3041,4.60133,2470.67,2023-7-24T11:24:20Z
2023-07-24T09:25:06Z,42.805,6.029,13.3050,4.60152,2470.67,2023-7-24T11:27:23Z
2023-07-24T09:28:09Z,42.805,6.029,13.3040,4.60157,2470.693,2023-7-24T11:30:27Z
2023-07-24T09:31:12Z,42.805,6.029,13.3036,4.60148,2470.684,2023-7-24T11:33:30Z
2023-07-24T09:34:15Z,42.805,6.029,13.3033,4.60167,2470.684,2023-7-24T11:36:33Z
2023-07-24T09:37:18Z,42.805,6.029,13.3041,4.60145,2470.717,2023-7-24T11:39:36Z
2023-07-24T09:40:21Z,42.805,6.029,13.3041,4.60146,2470.684,2023-7-24T11:42:39Z
2023-07-24T09:43:25Z,42.805,6.029,13.3043,4.60117,2470.67,2023-7-24T11:45:42Z
2023-07-24T09:46:28Z,42.805,6.029,13.3036,4.60137,2470.693,2023-7-24T11:48:45Z
2023-07-24T09:49:31Z,42.805,6.029,13.3054,4.60144,2470.67,2023-7-24T11:51:48Z
2023-07-24T09:52:34Z,42.805,6.029,13.3036,4.60107,2470.67,2023-7-24T11:54:51Z
2023-07-24T09:55:37Z,42.805,6.029,13.3048,4.60150,2470.717,2023-7-24T11:57:54Z
2023-07-24T09:58:40Z,42.805,6.029,13.3053,4.60146,2470.717,2023-7-24T12:00:57Z
2023-07-24T10:01:43Z,42.805,6.029,13.3043,4.60165,2470.73,2023-7-24T12:04:01Z
2023-07-24T10:04:46Z,42.805,6.029,13.3041,4.60135,2470.717,2023-7-24T12:07:04Z
2023-07-24T10:07:49Z,42.805,6.029,13.3057,4.60160,2470.693,2023-7-24T12:10:07Z
2023-07-24T10:10:52Z,42.805,6.029,13.3047,4.60138,2470.693,2023-7-24T12:13:10Z
2023-07-24T10:13:55Z,42.805,6.029,13.3038,4.60147,2470.693,2023-7-24T12:16:13Z
2023-07-24T10:16:58Z,42.805,6.029,13.3045,4.60172,2470.693,2023-7-24T12:19:16Z
2023-07-24T10:20:02Z,42.805,6.029,13.3069,4.60150,2470.693,2023-7-24T12:22:19Z
2023-07-24T10:23:05Z,42.805,6.029,13.3043,4.60160,2470.684,2023-7-24T12:25:22Z
2023-07-24T10:26:08Z,42.805,6.029,13.3051,4.60158,2470.684,2023-7-24T12:28:25Z
2023-07-24T10:29:11Z,42.805,6.029,13.3061,4.60170,2470.707,2023-7-24T12:31:28Z
2023-07-24T10:32:14Z,42.805,6.029,13.3043,4.60178,2470.693,2023-7-24T12:34:31Z
2023-07-24T10:35:17Z,42.805,6.029,13.3043,4.60160,2470.67,2023-7-24T12:37:34Z
2023-07-24T10:38:20Z,42.805,6.029,13.3034,4.60122,2470.693,2023-7-24T12:40:38Z
2023-07-24T10:41:23Z,42.805,6.029,13.3043,4.60161,2470.693,2023-7-24T12:43:41Z
2023-07-24T10:44:26Z,42.805,6.029,13.3059,4.60137,2470.707,2023-7-24T12:46:44Z
2023-07-24T10:47:29Z,42.805,6.029,13.3050,4.60155,2470.707,2023-7-24T12:49:47Z
2023-07-24T10:50:32Z,42.805,6.029,13.3034,4.60150,2470.693,2023-7-24T12:52:50Z
2023-07-24T10:53:36Z,42.805,6.029,13.3042,4.60150,2470.717,2023-7-24T12:55:53Z
2023-07-24T10:56:39Z,42.805,6.029,13.3039,4.60162,2470.693,2023-7-24T12:58:56Z
2023-07-24T10:59:42Z,42.805,6.029,13.3058,4.60157,2470.707,2023-7-24T13:01:59Z
2023-07-24T11:02:45Z,42.805,6.029,13.3059,4.60151,2470.73,2023-7-24T13:05:02Z
2023-07-24T11:05:48Z,42.805,6.029,13.3047,4.60142,2470.717,2023-7-24T13:08:05Z
2023-07-24T11:08:51Z,42.805,6.029,13.3039,4.60154,2470.707,2023-7-24T13:11:08Z
2023-07-24T11:11:54Z,42.805,6.029,13.3058,4.60137,2470.646,2023-7-24T13:14:11Z
2023-07-24T11:14:57Z,42.805,6.029,13.3048,4.60152,2470.717,2023-7-24T13:17:15Z
2023-07-24T11:18:00Z,42.805,6.029,13.3034,4.60137,2470.707,2023-7-24T13:20:18Z
2023-07-24T11:21:03Z,42.805,6.029,13.3039,4.60137,2470.684,2023-7-24T13:23:21Z
2023-07-24T11:24:06Z,42.805,6.029,13.3051,4.60144,2470.73,2023-7-24T13:26:24Z
2023-07-24T11:27:09Z,42.805,6.029,13.3034,4.60126,2470.693,2023-7-24T13:29:27Z
2023-07-24T11:30:13Z,42.805,6.029,13.3040,4.60120,2470.693,2023-7-24T13:32:30Z
2023-07-24T11:33:16Z,42.805,6.029,13.3039,4.60140,2470.693,2023-7-24T13:35:33Z
2023-07-24T11:36:19Z,42.805,6.029,13.3037,4.60144,2470.693,2023-7-24T13:38:36Z
2023-07-24T11:39:22Z,42.805,6.029,13.3046,4.60142,2470.693,2023-7-24T13:41:39Z
2023-07-24T11:42:25Z,42.805,6.029,13.3041,4.60124,2470.67,2023-7-24T13:44:42Z
2023-07-24T11:45:28Z,42.805,6.029,13.3043,4.60158,2470.717,2023-7-24T13:47:45Z
2023-07-24T11:48:31Z,42.805,6.029,13.3050,4.60138,2470.73,2023-7-24T13:50:48Z
2023-07-24T11:51:34Z,42.805,6.029,13.3053,4.60156,2470.707,2023-7-24T13:53:52Z
2023-07-24T11:54:37Z,42.805,6.029,13.3036,4.60135,2470.707,2023-7-24T13:56:55Z
2023-07-24T11:57:40Z,42.805,6.029,13.3036,4.60132,2470.684,2023-7-24T13:59:58Z
2023-07-24T12:00:43Z,42.805,6.029,13.3044,4.60122,2470.707,2023-7-24T14:03:01Z
2023-07-24T12:03:46Z,42.805,6.029,13.3046,4.60114,2470.67,2023-7-24T14:06:04Z
2023-07-24T12:06:50Z,42.805,6.029,13.3039,4.60123,2470.73,2023-7-24T14:09:07Z
2023-07-24T12:09:53Z,42.805,6.029,13.3046,4.60137,2470.661,2023-7-24T14:12:10Z
2023-07-24T12:12:56Z,42.805,6.029,13.3043,4.60132,2470.693,2023-7-24T14:15:13Z
2023-07-24T12:15:59Z,42.805,6.029,13.3050,4.60133,2470.684,2023-7-24T14:18:16Z
2023-07-24T12:19:02Z,42.805,6.029,13.3034,4.60135,2470.67,2023-7-24T14:21:19Z
2023-07-24T12:22:05Z,42.805,6.029,13.3032,4.60134,2470.693,2023-7-24T14:24:22Z
2023-07-24T12:25:08Z,42.805,6.029,13.3040,4.60135,2470.693,2023-7-24T14:27:26Z
2023-07-24T12:28:11Z,42.805,6.029,13.3048,4.60136,2470.67,2023-7-24T14:30:29Z
2023-07-24T12:31:16Z,42.805,6.029,13.3043,4.60123,2470.67,2023-7-24T14:33:33Z
2023-07-24T12:34:19Z,42.805,6.029,13.3042,4.60115,2470.707,2023-7-24T14:36:37Z
2023-07-24T12:37:22Z,42.805,6.029,13.3034,4.60132,2470.707,2023-7-24T14:39:40Z
2023-07-24T12:40:25Z,42.805,6.029,13.3037,4.60139,2470.67,2023-7-24T14:42:43Z
2023-07-24T12:43:28Z,42.805,6.029,13.3041,4.60122,2470.67,2023-7-24T14:45:46Z
2023-07-24T12:46:31Z,42.805,6.029,13.3043,4.60132,2470.67,2023-7-24T14:48:49Z
2023-07-24T12:49:35Z,42.805,6.029,13.3044,4.60129,2470.693,2023-7-24T14:51:52Z
2023-07-24T12:52:38Z,42.805,6.029,13.3040,4.60114,2470.646,2023-7-24T14:54:55Z
2023-07-24T12:55:41Z,42.805,6.029,13.3048,4.60135,2470.67,2023-7-24T14:57:58Z
2023-07-24T12:58:44Z,42.805,6.029,13.3051,4.60124,2470.684,2023-7-24T15:01:01Z
2023-07-24T13:01:47Z,42.805,6.029,13.3050,4.60140,2470.684,2023-7-24T15:04:04Z
2023-07-24T13:04:50Z,42.805,6.029,13.3049,4.60144,2470.67,2023-7-24T15:07:07Z
2023-07-24T13:07:53Z,42.805,6.029,13.3055,4.60144,2470.684,2023-7-24T15:10:11Z
2023-07-24T13:10:56Z,42.805,6.029,13.3047,4.60149,2470.646,2023-7-24T15:13:14Z
2023-07-24T13:13:59Z,42.805,6.029,13.3041,4.60137,2470.693,2023-7-24T15:16:17Z
2023-07-24T13:17:02Z,42.805,6.029,13.3041,4.60130,2470.646,2023-7-24T15:19:20Z
2023-07-24T13:20:05Z,42.805,6.029,13.3040,4.60150,2470.693,2023-7-24T15:22:23Z
2023-07-24T13:23:09Z,42.805,6.029,13.3043,4.60123,2470.684,2023-7-24T15:25:26Z
2023-07-24T13:26:12Z,42.805,6.029,13.3046,4.60123,2470.67,2023-7-24T15:28:29Z
2023-07-24T13:29:15Z,42.805,6.029,13.3041,4.60141,2470.684,2023-7-24T15:31:32Z
2023-07-24T13:32:18Z,42.805,6.029,13.3034,4.60150,2470.67,2023-7-24T15:34:35Z
2023-07-24T13:35:21Z,42.805,6.029,13.3039,4.60129,2470.661,2023-7-24T15:37:38Z
2023-07-24T13:38:24Z,42.805,6.029,13.3049,4.60146,2470.646,2023-7-24T15:40:41Z
2023-07-24T13:41:27Z,42.805,6.029,13.3034,4.60160,2470.661,2023-7-24T15:43:44Z
2023-07-24T13:44:30Z,42.805,6.029,13.3036,4.60144,2470.646,2023-7-24T15:46:48Z
2023-07-24T13:47:33Z,42.805,6.029,13.3042,4.60133,2470.67,2023-7-24T15:49:51Z
2023-07-24T13:50:36Z,42.805,6.029,13.3047,4.60120,2470.67,2023-7-24T15:52:54Z
2023-07-24T13:53:39Z,42.805,6.029,13.3039,4.60130,2470.661,2023-7-24T15:55:57Z
2023-07-24T13:56:42Z,42.805,6.029,13.3039,4.60125,2470.646,2023-7-24T15:59:00Z
2023-07-24T13:59:46Z,42.805,6.029,13.3038,4.60150,2470.684,2023-7-24T16:02:03Z
2023-07-24T14:02:49Z,42.805,6.029,13.3041,4.60130,2470.661,2023-7-24T16:05:06Z
2023-07-24T14:05:52Z,42.805,6.029,13.3044,4.60138,2470.661,2023-7-24T16:08:09Z
2023-07-24T14:08:55Z,42.805,6.029,13.3042,4.60129,2470.637,2023-7-24T16:11:12Z
2023-07-24T14:11:58Z,42.805,6.029,13.3048,4.60128,2470.61,2023-7-24T16:14:15Z
2023-07-24T14:15:01Z,42.805,6.029,13.3039,4.60141,2470.661,2023-7-24T16:17:18Z
2023-07-24T14:18:04Z,42.805,6.029,13.3043,4.60122,2470.646,2023-7-24T16:20:22Z
2023-07-24T14:21:07Z,42.805,6.029,13.3031,4.60113,2470.646,2023-7-24T16:23:25Z
2023-07-24T14:24:10Z,42.805,6.029,13.3036,4.60114,2470.646,2023-7-24T16:26:28Z
2023-07-24T14:27:13Z,42.805,6.029,13.3029,4.60127,2470.646,2023-7-24T16:29:31Z
2023-07-24T14:30:16Z,42.805,6.029,13.3036,4.60137,2470.637,2023-7-24T16:32:33Z
2023-07-24T14:33:19Z,42.805,6.029,13.3039,4.60136,2470.646,2023-7-24T16:35:36Z
2023-07-24T14:36:22Z,42.805,6.029,13.3039,4.60132,2470.624,2023-7-24T16:38:39Z
2023-07-24T14:39:25Z,42.805,6.029,13.3041,4.60148,2470.661,2023-7-24T16:41:42Z
2023-07-24T14:42:28Z,42.805,6.029,13.3035,4.60123,2470.577,2023-7-24T16:44:46Z
2023-07-24T14:45:31Z,42.805,6.029,13.3039,4.60125,2470.661,2023-7-24T16:47:49Z
2023-07-24T14:48:34Z,42.805,6.029,13.3046,4.60127,2470.624,2023-7-24T16:50:52Z
2023-07-24T14:51:37Z,42.805,6.029,13.3041,4.60125,2470.646,2023-7-24T16:53:55Z
2023-07-24T14:54:41Z,42.805,6.029,13.3046,4.60139,2470.6,2023-7-24T16:56:58Z
2023-07-24T14:57:44Z,42.805,6.029,13.3039,4.60127,2470.646,2023-7-24T17:00:01Z
2023-07-24T15:00:47Z,42.805,6.029,13.3042,4.60141,2470.624,2023-7-24T17:03:04Z
2023-07-24T15:03:50Z,42.805,6.029,13.3038,4.60137,2470.614,2023-7-24T17:06:07Z
2023-07-24T15:06:53Z,42.805,6.029,13.3043,4.60127,2470.637,2023-7-24T17:09:10Z
2023-07-24T15:09:56Z,42.805,6.029,13.3041,4.60122,2470.637,2023-7-24T17:12:13Z